TimeCDT,TemperatureF,Dew PointF,Humidity,Sea Level PressureIn,VisibilityMPH,Wind Direction,Wind SpeedMPH,Gust SpeedMPH,PrecipitationIn,Events,Conditions,WindDirDegrees,DateUTC
12:15 AM,21.2,19.4,93,29.63,1.5,SE,17.3,23.0,0.01,Snow,Light Snow,140,2013-03-18 05:15:00
12:35 AM,21.2,19.4,93,29.62,1.0,SE,17.3,-,0.01,Snow,Snow,140,2013-03-18 05:35:00
12:56 AM,21.2,19.4,93,29.61,0.8,SE,18.4,21.9,N/A,Snow,Snow,140,2013-03-18 05:56:00
1:15 AM,21.2,19.4,93,29.60,1.8,SE,16.1,23.0,N/A,Snow,Light Snow,140,2013-03-18 06:15:00
1:35 AM,21.2,19.4,93,29.59,1.8,SE,16.1,23.0,N/A,Snow,Light Snow,140,2013-03-18 06:35:00
1:56 AM,21.2,19.4,93,29.57,1.2,SE,16.1,-,N/A,Snow,Light Snow,140,2013-03-18 06:56:00
2:15 AM,21.2,21.2,100,29.56,0.8,SE,15.0,24.2,N/A,Snow,Snow,140,2013-03-18 07:15:00
2:35 AM,21.2,21.2,100,29.55,1.8,SE,17.3,23.0,0.01,Snow,Light Snow,140,2013-03-18 07:35:00
2:56 AM,23.0,21.2,93,29.54,1.8,SE,16.1,-,N/A,Snow,Light Snow,140,2013-03-18 07:56:00
3:16 AM,23.0,21.2,93,29.53,1.5,SE,15.0,-,N/A,Snow,Light Snow,140,2013-03-18 08:16:00
3:35 AM,23.0,21.2,93,29.51,1.8,SE,15.0,21.9,N/A,Snow,Light Snow,140,2013-03-18 08:35:00
3:56 AM,23.0,23.0,100,29.50,2.5,SE,13.8,-,N/A,Snow,Light Snow,140,2013-03-18 08:56:00
4:16 AM,23.0,23.0,100,29.48,2.5,SE,13.8,-,N/A,Snow,Light Snow,140,2013-03-18 09:16:00
4:35 AM,24.8,23.0,93,29.46,1.8,SE,12.7,-,N/A,Snow,Light Snow,140,2013-03-18 09:35:00
4:56 AM,24.8,23.0,93,29.45,2.0,SE,15.0,-,N/A,Snow,Light Snow,140,2013-03-18 09:56:00
5:15 AM,24.8,23.0,93,29.44,3.0,SE,13.8,-,N/A,Snow,Light Snow,140,2013-03-18 10:15:00
5:35 AM,26.6,24.8,93,29.42,5.0,SE,11.5,-,N/A,Snow,Light Snow,130,2013-03-18 10:35:00
5:55 AM,26.6,24.8,93,29.42,3.0,SE,11.5,-,N/A,Snow,Light Snow,140,2013-03-18 10:55:00
6:15 AM,26.6,26.6,100,29.40,4.0,SE,12.7,-,N/A,Snow,Light Snow,140,2013-03-18 11:15:00
6:36 AM,26.6,26.6,100,29.39,5.0,SE,12.7,-,0.01,Snow,Light Snow,140,2013-03-18 11:36:00
6:55 AM,28.4,26.6,93,29.39,5.0,SSE,6.9,-,0.01,Snow,Light Snow,160,2013-03-18 11:55:00
7:15 AM,28.4,26.6,93,29.39,4.0,South,3.5,-,N/A,,Overcast,180,2013-03-18 12:15:00
7:36 AM,28.4,28.4,100,29.39,3.0,WSW,10.4,-,N/A,,Overcast,240,2013-03-18 12:36:00
7:55 AM,26.6,24.8,93,29.40,2.0,West,15.0,23.0,N/A,,Overcast,280,2013-03-18 12:55:00
8:15 AM,23.0,23.0,100,29.42,2.0,West,18.4,21.9,N/A,,Overcast,280,2013-03-18 13:15:00
8:36 AM,21.2,21.2,100,29.42,2.0,West,20.7,26.5,N/A,,Overcast,280,2013-03-18 13:36:00
8:55 AM,21.2,19.4,93,29.43,1.8,West,18.4,23.0,N/A,,Overcast,280,2013-03-18 13:55:00
9:15 AM,19.4,19.4,100,29.44,2.0,West,19.6,24.2,N/A,,Overcast,280,2013-03-18 14:15:00
9:35 AM,19.4,17.6,93,29.45,1.8,West,17.3,23.0,N/A,,Overcast,270,2013-03-18 14:35:00
9:55 AM,19.4,17.6,93,29.46,1.8,West,19.6,24.2,N/A,,Overcast,280,2013-03-18 14:55:00
10:16 AM,17.6,14.0,86,29.47,1.0,WNW,23.0,32.2,N/A,Snow,Light Snow,290,2013-03-18 15:16:00
10:35 AM,17.6,14.0,86,29.49,1.0,WNW,25.3,32.2,N/A,Snow,Light Snow,290,2013-03-18 15:35:00
10:55 AM,15.8,14.0,93,29.50,0.8,WNW,18.4,26.5,N/A,Snow,Light Snow,290,2013-03-18 15:55:00
11:16 AM,15.8,12.2,86,29.51,1.2,WNW,20.7,28.8,N/A,Snow,Light Snow,290,2013-03-18 16:16:00
11:35 AM,15.8,12.2,86,29.52,1.0,WNW,24.2,33.4,N/A,Snow,Light Snow,290,2013-03-18 16:35:00
11:55 AM,15.8,12.2,86,29.54,1.0,WNW,21.9,33.4,N/A,Snow,Light Snow,290,2013-03-18 16:55:00
12:16 PM,15.8,12.2,86,29.55,0.8,WNW,25.3,34.5,N/A,Snow,Light Snow,290,2013-03-18 17:16:00
12:35 PM,15.8,12.2,86,29.56,1.0,WNW,27.6,34.5,N/A,Snow,Light Snow,290,2013-03-18 17:35:00
12:55 PM,15.8,12.2,86,29.57,0.8,WNW,26.5,32.2,N/A,Snow,Light Snow,290,2013-03-18 17:55:00
1:16 PM,15.8,12.2,86,29.59,1.0,WNW,24.2,33.4,N/A,Snow,Light Snow,300,2013-03-18 18:16:00
1:35 PM,15.8,12.2,86,29.59,0.8,WNW,25.3,35.7,N/A,Snow,Light Snow,300,2013-03-18 18:35:00
1:55 PM,15.8,12.2,86,29.61,0.8,NW,26.5,34.5,N/A,Snow,Light Snow,310,2013-03-18 18:55:00
2:16 PM,15.8,12.2,86,29.62,0.8,NW,25.3,38.0,N/A,Snow,Light Snow,320,2013-03-18 19:16:00
2:35 PM,14.0,12.2,93,29.63,0.8,NW,27.6,36.8,N/A,Snow,Light Snow,320,2013-03-18 19:35:00
2:55 PM,15.8,12.2,86,29.64,0.8,NW,27.6,-,N/A,Snow,Light Snow,310,2013-03-18 19:55:00
3:16 PM,15.8,12.2,86,29.64,0.8,NW,25.3,34.5,N/A,Snow,Light Snow,310,2013-03-18 20:16:00
3:35 PM,15.8,12.2,86,29.65,1.0,NW,21.9,31.1,N/A,Snow,Light Snow,320,2013-03-18 20:35:00
3:55 PM,15.8,12.2,86,29.66,0.8,NW,28.8,38.0,N/A,Snow,Light Snow,320,2013-03-18 20:55:00
4:16 PM,15.8,12.2,86,29.67,0.8,NW,28.8,35.7,N/A,Snow,Light Snow,320,2013-03-18 21:16:00
4:35 PM,15.8,12.2,86,29.69,0.8,NW,27.6,39.1,N/A,Snow,Light Snow,320,2013-03-18 21:35:00
4:55 PM,14.0,12.2,93,29.70,1.2,NW,21.9,35.7,N/A,Snow,Light Snow,320,2013-03-18 21:55:00
5:15 PM,14.0,12.2,93,29.71,0.5,NW,26.5,36.8,N/A,Snow,Light Snow,320,2013-03-18 22:15:00
5:35 PM,14.0,12.2,93,29.72,0.5,NNW,18.4,26.5,N/A,Snow,Light Snow,330,2013-03-18 22:35:00
5:55 PM,14.0,12.2,93,29.73,0.5,NW,25.3,33.4,N/A,Snow,Light Snow,320,2013-03-18 22:55:00
6:15 PM,14.0,10.4,86,29.74,0.8,NW,25.3,36.8,N/A,Snow,Light Snow,320,2013-03-18 23:15:00
6:36 PM,12.2,10.4,92,29.75,0.8,NW,23.0,33.4,N/A,Snow,Light Snow,310,2013-03-18 23:36:00
6:55 PM,12.2,10.4,92,29.76,1.0,NW,26.5,33.4,N/A,Snow,Light Snow,320,2013-03-18 23:55:00
7:15 PM,12.2,10.4,92,29.78,1.2,NW,25.3,38.0,N/A,Snow,Light Snow,320,2013-03-19 00:15:00
7:36 PM,12.2,8.6,85,29.79,1.2,NW,21.9,35.7,N/A,Snow,Light Snow,320,2013-03-19 00:36:00
7:55 PM,12.2,8.6,85,29.80,2.0,NW,21.9,26.5,N/A,Snow,Light Snow,310,2013-03-19 00:55:00
8:15 PM,12.2,8.6,85,29.81,3.0,NW,20.7,26.5,N/A,Snow,Light Snow,310,2013-03-19 01:15:00
8:36 PM,10.4,8.6,92,29.81,3.0,NW,20.7,29.9,N/A,Snow,Light Snow,310,2013-03-19 01:36:00
8:55 PM,10.4,8.6,92,29.82,3.0,NW,20.7,25.3,N/A,Snow,Light Snow,310,2013-03-19 01:55:00
9:15 PM,10.4,8.6,92,29.83,2.5,NW,19.6,25.3,N/A,Snow,Light Snow,310,2013-03-19 02:15:00
9:36 PM,10.4,8.6,92,29.84,2.5,NW,20.7,28.8,N/A,Snow,Light Snow,320,2013-03-19 02:36:00
9:55 PM,10.4,6.8,85,29.85,5.0,NW,19.6,28.8,N/A,,Mostly Cloudy,310,2013-03-19 02:55:00
10:15 PM,8.6,5.0,85,29.85,5.0,NW,23.0,29.9,N/A,,Scattered Clouds,310,2013-03-19 03:15:00
10:55 PM,8.6,5.0,85,29.87,7.0,NW,20.7,-,N/A,,Scattered Clouds,310,2013-03-19 03:55:00
11:15 PM,6.8,3.2,85,29.87,7.0,NW,18.4,24.2,N/A,,Clear,310,2013-03-19 04:15:00
11:35 PM,6.8,3.2,85,29.88,10.0,NW,19.6,25.3,N/A,,Clear,310,2013-03-19 04:35:00
11:55 PM,5.0,3.2,92,29.88,7.0,NW,19.6,27.6,N/A,,Clear,320,2013-03-19 04:55:00